User: anonymous   Login
Location: Unspecified
(0.0000°N, 0.0000°E)
Time: 12:32:23
(UTC+00:00)
Language:

AGILE - Orbit

View from above orbital plane
View from above orbital plane
View from above satellite
View from above satellite

Ground track
Ground track

The orbit data is extracted from the following two-line orbital elements,

1 31135U 07013A   17054.02277296  .00003233  00000-0  72096-4 0  9995
2 31135   2.4676 277.7445 0012901  21.2979 338.7611 15.29273755546201
Epoch (UTC): 23 February 2017 00:32:47
Eccentricity: 0.0012901
inclination: 2.4676°
perigee height: 469 km
apogee height: 487 km
right ascension of ascending node: 277.7445°
argument of perigee: 21.2979°
revolutions per day: 15.29273755
mean anomaly at epoch: 338.7611°
orbit number at epoch: 54620

The dashed part of the orbit path shows where the satellite is in the earth's shadow,  

DLR